Lakehurst NAS, NJ

2:13 AM EDT on July 27, 2017 (GMT -0400)
Lakehurst Naes

Weather History for KNEL - December, 2013

Change the Weather History Date:

Saturday, December 21, 2013

  Actual Average Record
Temperature  
Mean Temperature 59 °F -  
Max Temperature 61 °F 41 °F 64 °F (1998)
Min Temperature 50 °F 31 °F 10 °F (2004)
Degree Days  
Heating Degree Days 6    
Growing Degree Days 9 (Base 50)    
Moisture  
Dew Point 49 °F    
Average Humidity 75    
Maximum Humidity 86    
Minimum Humidity 55    
Precipitation  
Precipitation 0.00 in - - ()
Sea Level Pressure  
Sea Level Pressure 29.97 in    
Wind  
Wind Speed 9 mph (SW)    
Max Wind Speed 16 mph    
Max Gust Speed 22 mph    
Averages and records for this station are not official NWS values.
T = Trace of Precipitation, MM = Missing Value Source: NWS Daily Summary

Daily Weather History Graph

Daily Weather History Graph

Search for Another Location

Airport or City:

Trip Planner

Search our weather history database for the weather conditions in past years. The results will help you decide how hot, cold, wet, or windy it might be!

Date:

Astronomy

Dec. 21, 2013 Rise Set
Actual Time 7:15 AM EST 4:35 PM EST
Civil Twilight 6:45 AM EST 5:06 PM EST
Nautical Twilight 6:11 AM EST 5:40 PM EST
Astronomical Twilight 5:38 AM EST 6:13 PM EST
Moon 8:49 PM EST (12/21) 9:40 AM EST (12/21)
Length of Visible Light 10h 20m
Length of Day
9h 19m
Waning Gibbous, 84% of the Moon is Illuminated
Dec 21
Waning Gibbous
Dec 25
Last Quarter
Jan 1
New
Jan 7
First Quarter
Jan 15
Full

Hourly Weather History & Observations

Time (EST) Temp. Dew Point Humidity Pressure Visibility Wind Dir Wind Speed Gust Speed Precip Events Conditions
12:00 AM 53.1 °F 48.9 °F 86% 30.00 in - SW 6.9 mph - N/A   Scattered Clouds
1:00 AM 55.0 °F 48.9 °F 80% 29.99 in - SW 10.4 mph - N/A   Overcast
2:00 AM 54.0 °F 48.0 °F 80% 30.00 in - SW 6.9 mph - N/A   Scattered Clouds
3:00 AM 52.0 °F 46.9 °F 83% 30.01 in - SSW 6.9 mph - N/A   Partly Cloudy
4:00 AM 50.0 °F 46.0 °F 86% 29.99 in - SSW 5.8 mph - N/A   Partly Cloudy
5:00 AM 51.1 °F 46.9 °F 86% 29.99 in - SW 6.9 mph - N/A   Overcast
6:00 AM 52.0 °F 46.0 °F 80% 30.00 in - SW 9.2 mph - N/A   Overcast
7:00 AM 50.0 °F 46.0 °F 86% 30.00 in - SW 5.8 mph - N/A   Clear
8:00 AM 51.1 °F 46.0 °F 83% 30.01 in - SSW 9.2 mph - N/A   Overcast
9:00 AM 54.0 °F 46.9 °F 77% 30.01 in - SW 9.2 mph - N/A   Overcast
10:00 AM 57.0 °F 48.0 °F 72% 30.01 in - SW 11.5 mph - N/A   Overcast
11:00 AM 60.1 °F 48.9 °F 67% 30.00 in - WSW 10.4 mph - N/A   Overcast
12:00 PM 64.0 °F 50.0 °F 60% 29.96 in - SW 13.8 mph 21.9 mph N/A   Clear
1:00 PM 66.0 °F 50.0 °F 56% 29.93 in - SW 16.1 mph - N/A   Overcast
2:00 PM 68.0 °F 51.1 °F 55% 29.91 in - SW 16.1 mph 21.9 mph N/A   Clear
3:00 PM 66.9 °F 51.1 °F 57% 29.91 in - SSW 12.7 mph - N/A   Clear
4:00 PM 64.9 °F 51.1 °F 61% 29.93 in - SSW 9.2 mph - N/A   Clear
5:00 PM 63.0 °F 51.1 °F 65% 29.95 in - SW 8.1 mph - N/A   Clear
6:00 PM 60.1 °F 51.1 °F 72% 29.97 in - SW 8.1 mph - N/A   Clear
7:00 PM 55.9 °F 48.9 °F 77% 29.98 in - SSE 8.1 mph - N/A   Clear
8:00 PM 53.1 °F 48.0 °F 83% 29.97 in - SSE 5.8 mph - N/A   Partly Cloudy
9:00 PM 54.0 °F 50.0 °F 86% 29.96 in - South 5.8 mph - N/A   Clear
10:00 PM 57.9 °F 53.1 °F 84% 29.95 in - SSW 10.4 mph - N/A   Clear
11:00 PM 60.1 °F 54.0 °F 80% 29.94 in - SSW 11.5 mph - N/A   Partly Cloudy